| time (UTC) | temp F | wind direction | speed knots | gust knots | rain 1hr in | rain 24hr in | rain mn in | humidity % | barometer mb |
| 20260508232705 | 63 | 199 | 10.4 | 17.4 | 0.00 | 0.00 | 0.00 | 54 | 1010.7 |
| 20260508232204 | 63 | 193 | 8.7 | 14.8 | 0.00 | 0.00 | 0.00 | 54 | 1010.7 |
| 20260508231204 | 63 | 198 | 9.6 | 14.8 | 0.00 | 0.00 | 0.00 | 53 | 1010.7 |
| 20260508230704 | 64 | 178 | 11.3 | 17.4 | 0.00 | 0.00 | 0.00 | 52 | 1010.6 |
| 20260508230205 | 64 | 196 | 8.7 | 14.8 | 0.00 | 0.00 | 0.00 | 54 | 1010.7 |
| 20260508225704 | 64 | 200 | 8.7 | 13.9 | 0.00 | 0.00 | 0.00 | 53 | 1010.6 |
| 20260508225204 | 64 | 196 | 11.3 | 15.6 | 0.00 | 0.00 | 0.00 | 51 | 1010.7 |
| 20260508224704 | 64 | 194 | 11.3 | 17.4 | 0.00 | 0.00 | 0.00 | 52 | 1010.6 |
| 20260508224205 | 64 | 188 | 10.4 | 17.4 | 0.00 | 0.00 | 0.00 | 51 | 1010.6 |
| 20260508223704 | 64 | 194 | 10.4 | 20.0 | 0.00 | 0.00 | 0.00 | 53 | 1010.5 |
| 20260508223204 | 64 | 204 | 11.3 | 20.0 | 0.00 | 0.00 | 0.00 | 52 | 1010.5 |
| 20260508222704 | 65 | 183 | 11.3 | 20.9 | 0.00 | 0.00 | 0.00 | 51 | 1010.5 |
| 20260508222204 | 65 | 194 | 12.2 | 18.2 | 0.00 | 0.00 | 0.00 | 51 | 1010.6 |
| 20260508221704 | 65 | 187 | 12.2 | 19.1 | 0.00 | 0.00 | 0.00 | 51 | 1010.6 |
| 20260508221205 | 65 | 203 | 10.4 | 17.4 | 0.00 | 0.00 | 0.00 | 51 | 1010.5 |
| 20260508220704 | 66 | 187 | 11.3 | 17.4 | 0.00 | 0.00 | 0.00 | 53 | 1010.4 |
| 20260508220204 | 66 | 199 | 12.2 | 18.2 | 0.00 | 0.00 | 0.00 | 51 | 1010.6 |
| 20260508215704 | 66 | 206 | 11.3 | 15.6 | 0.00 | 0.00 | 0.00 | 50 | 1010.4 |
| 20260508215204 | 67 | 218 | 11.3 | 17.4 | 0.00 | 0.00 | 0.00 | 51 | 1010.5 |
| 20260508214704 | 67 | 202 | 10.4 | 15.6 | 0.00 | 0.00 | 0.00 | 49 | 1010.5 |
| 20260508214204 | 68 | 205 | 11.3 | 17.4 | 0.00 | 0.00 | 0.00 | 51 | 1010.4 |
| 20260508213704 | 68 | 187 | 10.4 | 17.4 | 0.00 | 0.00 | 0.00 | 51 | 1010.4 |
| 20260508213204 | 68 | 190 | 11.3 | 18.2 | 0.00 | 0.00 | 0.00 | 49 | 1010.4 |
| 20260508212704 | 68 | 189 | 9.6 | 14.8 | 0.00 | 0.00 | 0.00 | 49 | 1010.4 |
| 20260508212204 | 68 | 186 | 11.3 | 19.1 | 0.00 | 0.00 | 0.00 | 50 | 1010.4 |
| 20260508211205 | 68 | 194 | 10.4 | 17.4 | 0.00 | 0.00 | 0.00 | 49 | 1010.5 |
| 20260508210705 | 68 | 192 | 11.3 | 18.2 | 0.00 | 0.00 | 0.00 | 45 | 1010.5 |
| 20260508210205 | 68 | 194 | 12.2 | 17.4 | 0.00 | 0.00 | 0.00 | 46 | 1010.5 |
| 20260508205704 | 68 | 199 | 11.3 | 17.4 | 0.00 | 0.00 | 0.00 | 49 | 1010.6 |
| 20260508205204 | 68 | 202 | 11.3 | 14.8 | 0.00 | 0.00 | 0.00 | 47 | 1010.7 |
| 20260508204704 | 68 | 203 | 9.6 | 14.8 | 0.00 | 0.00 | 0.00 | 48 | 1010.7 |
| 20260508203704 | 68 | 209 | 13.9 | 22.6 | 0.00 | 0.00 | 0.00 | 45 | 1010.7 |
| 20260508203204 | 68 | 194 | 12.2 | 18.2 | 0.00 | 0.00 | 0.00 | 48 | 1010.7 |
| 20260508202704 | 68 | 198 | 11.3 | 18.2 | 0.00 | 0.00 | 0.00 | 46 | 1010.8 |
| 20260508202204 | 68 | 195 | 13.9 | 20.0 | 0.00 | 0.00 | 0.00 | 48 | 1010.9 |
| 20260508201704 | 68 | 187 | 13.0 | 19.1 | 0.00 | 0.00 | 0.00 | 47 | 1011.0 |
| 20260508201205 | 69 | 203 | 12.2 | 20.9 | 0.00 | 0.00 | 0.00 | 48 | 1011.0 |
| 20260508200704 | 69 | 187 | 10.4 | 17.4 | 0.00 | 0.00 | 0.00 | 50 | 1011.2 |
| 20260508200204 | 69 | 194 | 11.3 | 20.0 | 0.00 | 0.00 | 0.00 | 49 | 1011.3 |
| 20260508195704 | 69 | 191 | 11.3 | 17.4 | 0.00 | 0.00 | 0.00 | 49 | 1011.3 |
| 20260508195204 | 69 | 198 | 10.4 | 18.2 | 0.00 | 0.00 | 0.00 | 49 | 1011.4 |
| 20260508194705 | 68 | 206 | 10.4 | 17.4 | 0.00 | 0.00 | 0.00 | 48 | 1011.4 |
| 20260508194204 | 68 | 203 | 10.4 | 13.0 | 0.00 | 0.00 | 0.00 | 49 | 1011.5 |
| 20260508193704 | 68 | 195 | 11.3 | 19.1 | 0.00 | 0.00 | 0.00 | 46 | 1011.4 |
| 20260508193204 | 68 | 190 | 12.2 | 17.4 | 0.00 | 0.00 | 0.00 | 48 | 1011.5 |
| 20260508192204 | 68 | 203 | 12.2 | 17.4 | 0.00 | 0.00 | 0.00 | 51 | 1011.6 |
| 20260508191704 | 68 | 198 | 8.7 | 15.6 | 0.00 | 0.00 | 0.00 | 48 | 1011.7 |
| 20260508191205 | 68 | 199 | 12.2 | 19.1 | 0.00 | 0.00 | 0.00 | 43 | 1011.8 |
| 20260508185205 | 67 | 200 | 11.3 | 20.9 | 0.00 | 0.00 | 0.00 | 47 | 1012.1 |
| 20260508184704 | 67 | 206 | 11.3 | 18.2 | 0.00 | 0.00 | 0.00 | 47 | 1012.1 |
| 20260508184204 | 67 | 188 | 11.3 | 19.1 | 0.00 | 0.00 | 0.00 | 47 | 1012.1 |
| 20260508183704 | 67 | 203 | 11.3 | 17.4 | 0.00 | 0.00 | 0.00 | 46 | 1012.2 |
| 20260508183204 | 67 | 205 | 12.2 | 17.4 | 0.00 | 0.00 | 0.00 | 48 | 1012.2 |
| 20260508182204 | 67 | 198 | 12.2 | 17.4 | 0.00 | 0.00 | 0.00 | 47 | 1012.2 |
| 20260508181705 | 67 | 205 | 13.0 | 25.2 | 0.00 | 0.00 | 0.00 | 50 | 1012.3 |
| 20260508181204 | 67 | 198 | 13.0 | 19.1 | 0.00 | 0.00 | 0.00 | 46 | 1012.3 |
| 20260508180704 | 67 | 203 | 12.2 | 18.2 | 0.00 | 0.00 | 0.00 | 46 | 1012.4 |
| 20260508180204 | 67 | 202 | 13.9 | 20.0 | 0.00 | 0.00 | 0.00 | 46 | 1012.3 |
| 20260508174204 | 67 | 192 | 11.3 | 17.4 | 0.00 | 0.00 | 0.00 | 44 | 1012.4 |
| 20260508173704 | 67 | 208 | 11.3 | 15.6 | 0.00 | 0.00 | 0.00 | 46 | 1012.6 |
| 20260508173204 | 66 | 186 | 11.3 | 15.6 | 0.00 | 0.00 | 0.00 | 45 | 1012.6 |
| 20260508172704 | 66 | 185 | 10.4 | 15.6 | 0.00 | 0.00 | 0.00 | 42 | 1012.7 |
| 20260508171704 | 66 | 196 | 8.7 | 13.9 | 0.00 | 0.00 | 0.00 | 44 | 1012.9 |
| 20260508171205 | 66 | 192 | 11.3 | 17.4 | 0.00 | 0.00 | 0.00 | 44 | 1013.0 |
| 20260508170704 | 65 | 200 | 12.2 | 17.4 | 0.00 | 0.00 | 0.00 | 45 | 1013.0 |
| 20260508170204 | 65 | 200 | 7.0 | 12.2 | 0.00 | 0.00 | 0.00 | 42 | 1013.0 |
| 20260508165704 | 65 | 164 | 8.7 | 15.6 | 0.00 | 0.00 | 0.00 | 45 | 1013.1 |
| 20260508165204 | 65 | 209 | 9.6 | 15.6 | 0.00 | 0.00 | 0.00 | 41 | 1013.1 |
| 20260508164704 | 65 | 179 | 11.3 | 17.4 | 0.00 | 0.00 | 0.00 | 38 | 1013.2 |
| 20260508163704 | 65 | 193 | 7.0 | 11.3 | 0.00 | 0.00 | 0.00 | 43 | 1013.2 |
| 20260508163204 | 65 | 182 | 10.4 | 15.6 | 0.00 | 0.00 | 0.00 | 42 | 1013.3 |
| 20260508162704 | 65 | 198 | 7.0 | 13.9 | 0.00 | 0.00 | 0.00 | 43 | 1013.4 |
| 20260508161704 | 65 | 156 | 7.0 | 11.3 | 0.00 | 0.00 | 0.00 | 44 | 1013.5 |
| 20260508161204 | 65 | 189 | 7.8 | 12.2 | 0.00 | 0.00 | 0.00 | 44 | 1013.5 |
| 20260508160204 | 65 | 178 | 6.1 | 11.3 | 0.00 | 0.00 | 0.00 | 44 | 1013.7 |
| 20260508155705 | 65 | 180 | 8.7 | 14.8 | 0.00 | 0.00 | 0.00 | 42 | 1013.7 |
| 20260508155204 | 66 | 203 | 7.8 | 12.2 | 0.00 | 0.00 | 0.00 | 44 | 1013.7 |
| 20260508154704 | 66 | 197 | 9.6 | 12.2 | 0.00 | 0.00 | 0.00 | 44 | 1013.6 |
| 20260508154204 | 66 | 200 | 7.0 | 12.2 | 0.00 | 0.00 | 0.00 | 43 | 1013.7 |
| 20260508153204 | 66 | 212 | 7.8 | 11.3 | 0.00 | 0.00 | 0.00 | 43 | 1014.0 |
| 20260508152705 | 66 | 210 | 6.1 | 10.4 | 0.00 | 0.00 | 0.00 | 39 | 1014.0 |
| 20260508152204 | 66 | 227 | 5.2 | 8.7 | 0.00 | 0.00 | 0.00 | 39 | 1014.0 |
| 20260508150704 | 65 | 218 | 5.2 | 7.8 | 0.00 | 0.00 | 0.00 | 36 | 1014.2 |
| 20260508150205 | 65 | 241 | 3.5 | 10.4 | 0.00 | 0.00 | 0.00 | 35 | 1014.1 |
| 20260508145704 | 65 | 229 | 4.3 | 7.8 | 0.00 | 0.00 | 0.00 | 34 | 1014.1 |
| 20260508145204 | 65 | 220 | 5.2 | 7.8 | 0.00 | 0.00 | 0.00 | 36 | 1014.0 |
| 20260508144204 | 65 | 232 | 4.3 | 8.7 | 0.00 | 0.00 | 0.00 | 45 | 1014.2 |
| 20260508143204 | 65 | 211 | 2.6 | 5.2 | 0.00 | 0.00 | 0.00 | 42 | 1014.2 |
| 20260508142703 | 65 | 207 | 4.3 | 6.1 | 0.00 | 0.00 | 0.00 | 43 | 1014.2 |
| 20260508142204 | 64 | 220 | 1.7 | 2.6 | 0.00 | 0.00 | 0.00 | 40 | 1014.2 |
| 20260508141704 | 64 | 204 | 2.6 | 2.6 | 0.00 | 0.00 | 0.00 | 39 | 1014.3 |
| 20260508141204 | 64 | 200 | 2.6 | 2.6 | 0.00 | 0.00 | 0.00 | 37 | 1014.2 |
| 20260508140704 | 63 | 191 | 1.7 | 2.6 | 0.00 | 0.00 | 0.00 | 37 | 1014.2 |
| 20260508140204 | 63 | 202 | 1.7 | 2.6 | 0.00 | 0.00 | 0.00 | 40 | 1014.3 |
| 20260508135704 | 63 | 327 | 0.0 | 1.7 | 0.00 | 0.00 | 0.00 | 39 | 1014.4 |
| 20260508135204 | 62 | 333 | 1.7 | 2.6 | 0.00 | 0.00 | 0.00 | 40 | 1014.4 |
| 20260508134704 | 62 | 212 | 2.6 | 6.1 | 0.00 | 0.00 | 0.00 | 43 | 1014.4 |
| 20260508134204 | 62 | 260 | 0.9 | 2.6 | 0.00 | 0.00 | 0.00 | 41 | 1014.4 |
| 20260508133704 | 62 | 82 | 0.0 | 2.6 | 0.00 | 0.00 | 0.00 | 40 | 1014.4 |
| 20260508133204 | 62 | 350 | 1.7 | 4.3 | 0.00 | 0.00 | 0.00 | 40 | 1014.4 |
| 20260508132704 | 62 | 305 | 2.6 | 5.2 | 0.00 | 0.00 | 0.00 | 42 | 1014.5 |
| 20260508132204 | 62 | 83 | 0.9 | 2.6 | 0.00 | 0.00 | 0.00 | 43 | 1014.5 |
| 20260508131204 | 61 | 358 | 2.6 | 6.1 | 0.00 | 0.00 | 0.00 | 46 | 1014.5 |
| 20260508130204 | 61 | 356 | 2.6 | 4.3 | 0.00 | 0.00 | 0.00 | 48 | 1014.6 |
| 20260508125704 | 61 | 51 | 2.6 | 4.3 | 0.00 | 0.00 | 0.00 | 50 | 1014.4 |
| 20260508125204 | 60 | 62 | 0.0 | 0.9 | 0.00 | 0.00 | 0.00 | 50 | 1014.4 |
| 20260508124704 | 60 | 335 | 0.9 | 4.3 | 0.00 | 0.00 | 0.00 | 50 | 1014.5 |
| 20260508124204 | 60 | 271 | 0.9 | 1.7 | 0.00 | 0.00 | 0.00 | 51 | 1014.4 |
| 20260508123203 | 59 | 7 | 2.6 | 4.3 | 0.00 | 0.00 | 0.00 | 51 | 1014.3 |
| 20260508122704 | 59 | 350 | 1.7 | 4.3 | 0.00 | 0.00 | 0.00 | 53 | 1014.3 |
| 20260508122205 | 59 | 354 | 1.7 | 4.3 | 0.00 | 0.00 | 0.00 | 52 | 1014.3 |
| 20260508121704 | 59 | 359 | 2.6 | 6.1 | 0.00 | 0.00 | 0.00 | 55 | 1014.3 |
| 20260508121204 | 59 | 346 | 1.7 | 2.6 | 0.00 | 0.00 | 0.00 | 55 | 1014.1 |
| 20260508120704 | 58 | 295 | 0.9 | 2.6 | 0.00 | 0.00 | 0.00 | 56 | 1014.2 |
| 20260508120204 | 58 | 326 | 1.7 | 2.6 | 0.00 | 0.00 | 0.00 | 56 | 1014.1 |
| 20260508115704 | 57 | 356 | 1.7 | 5.2 | 0.00 | 0.00 | 0.00 | 54 | 1014.0 |
| 20260508115204 | 57 | 327 | 0.9 | 2.6 | 0.00 | 0.00 | 0.00 | 56 | 1013.9 |
| 20260508114204 | 56 | 335 | 0.0 | 2.6 | 0.00 | 0.00 | 0.00 | 54 | 1013.9 |
| 20260508113204 | 55 | 25 | 0.0 | 2.6 | 0.00 | 0.00 | 0.00 | 59 | 1013.7 |
| 20260508112704 | 54 | 8 | 0.9 | 2.6 | 0.00 | 0.00 | 0.00 | 59 | 1013.7 |
| 20260508112203 | 53 | 338 | 0.0 | 1.7 | 0.00 | 0.00 | 0.00 | 62 | 1013.6 |
| 20260508111203 | 52 | 348 | 0.9 | 2.6 | 0.00 | 0.00 | 0.00 | 63 | 1013.4 |
| 20260508110704 | 52 | 357 | 1.7 | 2.6 | 0.00 | 0.00 | 0.00 | 64 | 1013.5 |
| 20260508110204 | 52 | 347 | 1.7 | 2.6 | 0.00 | 0.00 | 0.00 | 63 | 1013.4 |
| 20260508105704 | 52 | 9 | 0.9 | 2.6 | 0.00 | 0.00 | 0.00 | 64 | 1013.3 |
| 20260508105204 | 52 | 10 | 0.0 | 2.6 | 0.00 | 0.00 | 0.00 | 64 | 1013.2 |
| 20260508104704 | 52 | 352 | 0.9 | 2.6 | 0.00 | 0.00 | 0.00 | 63 | 1013.1 |
| 20260508104204 | 52 | 352 | 0.9 | 2.6 | 0.00 | 0.00 | 0.00 | 63 | 1013.1 |
| 20260508102704 | 52 | 1 | 0.0 | 2.6 | 0.00 | 0.01 | 0.00 | 62 | 1012.8 |
| 20260508102204 | 52 | 348 | 1.7 | 4.3 | 0.00 | 0.01 | 0.00 | 62 | 1012.8 |
| 20260508101704 | 52 | 350 | 0.9 | 5.2 | 0.00 | 0.01 | 0.00 | 62 | 1012.7 |
| 20260508101204 | 52 | 358 | 0.9 | 2.6 | 0.00 | 0.01 | 0.00 | 62 | 1012.6 |
| 20260508100704 | 52 | 347 | 0.9 | 2.6 | 0.00 | 0.01 | 0.00 | 62 | 1012.6 |
| 20260508100204 | 52 | 344 | 0.0 | 2.6 | 0.00 | 0.01 | 0.00 | 63 | 1012.7 |
| 20260508095205 | 53 | 351 | 0.9 | 4.3 | 0.00 | 0.01 | 0.00 | 62 | 1012.6 |
| 20260508094706 | 53 | 339 | 1.7 | 4.3 | 0.00 | 0.01 | 0.00 | 61 | 1012.5 |
| 20260508094205 | 53 | 4 | 0.9 | 4.3 | 0.00 | 0.01 | 0.00 | 61 | 1012.6 |
| 20260508093706 | 53 | 356 | 1.7 | 4.3 | 0.00 | 0.01 | 0.00 | 61 | 1012.6 |
| 20260508093205 | 53 | 344 | 0.9 | 5.2 | 0.00 | 0.01 | 0.00 | 62 | 1012.5 |
| 20260508092705 | 53 | 1 | 0.9 | 2.6 | 0.00 | 0.01 | 0.00 | 62 | 1012.5 |
| 20260508092205 | 52 | 353 | 3.5 | 7.8 | 0.00 | 0.01 | 0.00 | 64 | 1012.5 |
| 20260508091706 | 53 | 355 | 2.6 | 7.8 | 0.00 | 0.01 | 0.00 | 66 | 1012.4 |
| 20260508091205 | 53 | 0 | 2.6 | 6.1 | 0.00 | 0.01 | 0.00 | 67 | 1012.3 |
| 20260508085706 | 53 | 345 | 2.6 | 5.2 | 0.00 | 0.01 | 0.00 | 67 | 1012.0 |
| 20260508085205 | 53 | 337 | 1.7 | 4.3 | 0.00 | 0.01 | 0.00 | 68 | 1012.1 |
| 20260508084705 | 53 | 351 | 2.6 | 7.8 | 0.00 | 0.01 | 0.00 | 67 | 1011.9 |
| 20260508084205 | 53 | 334 | 4.3 | 10.4 | 0.00 | 0.01 | 0.00 | 68 | 1011.8 |
| 20260508083706 | 53 | 354 | 1.7 | 6.1 | 0.00 | 0.01 | 0.00 | 69 | 1011.8 |
| 20260508083205 | 53 | 339 | 1.7 | 7.8 | 0.00 | 0.01 | 0.00 | 70 | 1011.7 |
| 20260508082706 | 53 | 359 | 2.6 | 7.0 | 0.00 | 0.01 | 0.00 | 70 | 1011.6 |
| 20260508082206 | 53 | 343 | 0.9 | 7.0 | 0.00 | 0.01 | 0.00 | 71 | 1011.6 |
| 20260508081705 | 53 | 331 | 1.7 | 6.1 | 0.00 | 0.01 | 0.00 | 71 | 1011.6 |
| 20260508081205 | 52 | 351 | 2.6 | 6.1 | 0.00 | 0.01 | 0.00 | 74 | 1011.6 |
| 20260508080206 | 52 | 331 | 1.7 | 5.2 | 0.00 | 0.01 | 0.00 | 75 | 1011.4 |
| 20260508075705 | 52 | 324 | 2.6 | 7.0 | 0.00 | 0.01 | 0.00 | 77 | 1011.3 |
| 20260508075205 | 52 | 319 | 2.6 | 7.8 | 0.00 | 0.01 | 0.00 | 78 | 1011.2 |
| 20260508074706 | 52 | 347 | 1.7 | 7.8 | 0.00 | 0.01 | 0.00 | 80 | 1011.2 |
| 20260508073705 | 52 | 334 | 2.6 | 10.4 | 0.00 | 0.01 | 0.00 | 82 | 1010.9 |
| 20260508073206 | 52 | 340 | 2.6 | 7.8 | 0.00 | 0.01 | 0.00 | 84 | 1010.8 |
| 20260508072705 | 52 | 343 | 0.0 | 2.6 | 0.00 | 0.01 | 0.00 | 85 | 1010.8 |
| 20260508072206 | 52 | 198 | 0.0 | 2.6 | 0.00 | 0.01 | 0.00 | 85 | 1010.7 |
| 20260508071705 | 52 | 259 | 0.9 | 5.2 | 0.00 | 0.01 | 0.00 | 85 | 1010.6 |
| 20260508071205 | 52 | 237 | 1.7 | 5.2 | 0.00 | 0.01 | 0.00 | 85 | 1010.6 |
| 20260508070205 | 52 | 322 | 1.7 | 2.6 | 0.00 | 0.01 | 0.00 | 85 | 1010.3 |
| 20260508065705 | 52 | 298 | 0.9 | 5.2 | 0.00 | 0.01 | 0.00 | 86 | 1010.3 |
| 20260508064705 | 52 | 5 | 0.9 | 2.6 | 0.00 | 0.01 | 0.00 | 85 | 1010.1 |
| 20260508064206 | 52 | 280 | 1.7 | 4.3 | 0.00 | 0.01 | 0.00 | 85 | 1010.0 |
| 20260508063707 | 52 | 332 | 0.0 | 4.3 | 0.00 | 0.01 | 0.00 | 85 | 1010.0 |
| 20260508063205 | 52 | 226 | 0.9 | 4.3 | 0.00 | 0.01 | 0.00 | 85 | 1010.0 |
| 20260508062705 | 53 | 281 | 0.9 | 2.6 | 0.00 | 0.01 | 0.00 | 85 | 1010.0 |
| 20260508061706 | 53 | 289 | 0.0 | 6.1 | 0.00 | 0.01 | 0.00 | 85 | 1010.0 |
| 20260508061206 | 53 | 267 | 1.7 | 6.1 | 0.00 | 0.02 | 0.00 | 84 | 1010.1 |
| 20260508060705 | 53 | 271 | 0.9 | 2.6 | 0.00 | 0.02 | 0.00 | 84 | 1010.1 |
| 20260508060206 | 53 | 270 | 3.5 | 6.1 | 0.00 | 0.02 | 0.00 | 85 | 1010.1 |
| 20260508055706 | 53 | 271 | 1.7 | 5.2 | 0.00 | 0.02 | 0.00 | 84 | 1010.1 |
| 20260508055205 | 53 | 245 | 0.9 | 5.2 | 0.00 | 0.03 | 0.00 | 84 | 1010.1 |
| 20260508054706 | 53 | 247 | 0.9 | 4.3 | 0.00 | 0.05 | 0.00 | 83 | 1010.1 |
| 20260508053706 | 53 | 254 | 1.7 | 7.8 | 0.00 | 0.08 | 0.00 | 82 | 1010.1 |
| 20260508053205 | 53 | 238 | 1.7 | 7.8 | 0.00 | 0.12 | 0.00 | 82 | 1010.0 |
| 20260508052705 | 53 | 232 | 4.3 | 8.7 | 0.00 | 0.13 | 0.00 | 82 | 1010.1 |
| 20260508052205 | 53 | 262 | 1.7 | 7.0 | 0.00 | 0.14 | 0.00 | 82 | 1010.2 |
| 20260508051706 | 54 | 231 | 1.7 | 7.8 | 0.00 | 0.16 | 0.00 | 82 | 1010.2 |
| 20260508051205 | 54 | 237 | 1.7 | 7.8 | 0.00 | 0.16 | 0.00 | 82 | 1010.2 |
| 20260508050206 | 54 | 238 | 1.7 | 5.2 | 0.00 | 0.16 | 0.00 | 82 | 1010.1 |
| 20260508045205 | 54 | 260 | 1.7 | 6.1 | 0.00 | 0.16 | 0.00 | 82 | 1010.1 |
| 20260508044205 | 54 | 289 | 1.7 | 7.8 | 0.00 | 0.16 | 0.00 | 82 | 1010.1 |
| 20260508043705 | 54 | 242 | 1.7 | 8.7 | 0.00 | 0.16 | 0.00 | 82 | 1009.9 |
| 20260508043205 | 54 | 263 | 3.5 | 8.7 | 0.00 | 0.16 | 0.00 | 82 | 1009.9 |
| 20260508042706 | 54 | 243 | 1.7 | 10.4 | 0.00 | 0.16 | 0.00 | 83 | 1009.9 |
| 20260508042206 | 54 | 258 | 2.6 | 8.7 | 0.00 | 0.16 | 0.00 | 83 | 1009.9 |
| 20260508041705 | 53 | 245 | 2.6 | 7.8 | 0.00 | 0.16 | 0.00 | 83 | 1009.8 |
| 20260508040705 | 53 | 255 | 2.6 | 7.0 | 0.00 | 0.16 | 0.00 | 84 | 1009.7 |
| 20260508040205 | 53 | 239 | 2.6 | 7.0 | 0.00 | 0.16 | 0.00 | 83 | 1009.7 |
| 20260508035706 | 53 | 302 | 0.0 | 4.3 | 0.00 | 0.16 | 0.16 | 83 | 1009.7 |
| 20260508035205 | 53 | 222 | 0.9 | 2.6 | 0.00 | 0.16 | 0.16 | 83 | 1009.6 |
| 20260508034705 | 52 | 317 | 0.9 | 2.6 | 0.00 | 0.16 | 0.16 | 82 | 1009.7 |
| 20260508033205 | 52 | 280 | 2.6 | 6.1 | 0.00 | 0.16 | 0.16 | 81 | 1009.6 |
| 20260508032706 | 52 | 237 | 1.7 | 6.1 | 0.00 | 0.16 | 0.16 | 81 | 1009.5 |
| 20260508032205 | 52 | 282 | 2.6 | 5.2 | 0.00 | 0.16 | 0.16 | 81 | 1009.6 |
| 20260508031206 | 52 | 255 | 1.7 | 6.1 | 0.00 | 0.16 | 0.16 | 81 | 1009.8 |
| 20260508024205 | 52 | 251 | 0.9 | 6.1 | 0.00 | 0.16 | 0.16 | 78 | 1009.8 |
| 20260508023705 | 52 | 237 | 1.7 | 7.8 | 0.00 | 0.16 | 0.16 | 78 | 1009.7 |
| 20260508021705 | 51 | 239 | 1.7 | 6.1 | 0.00 | 0.16 | 0.16 | 78 | 1009.6 |
| 20260508021205 | 51 | 222 | 1.7 | 4.3 | 0.00 | 0.16 | 0.16 | 78 | 1009.6 |
| 20260508020705 | 51 | 100 | 1.7 | 5.2 | 0.00 | 0.16 | 0.16 | 78 | 1009.6 |
| 20260508020206 | 51 | 274 | 2.6 | 6.1 | 0.00 | 0.16 | 0.16 | 78 | 1009.6 |
| 20260508015705 | 51 | 244 | 1.7 | 7.8 | 0.00 | 0.16 | 0.16 | 78 | 1009.5 |
| 20260508014706 | 51 | 2 | 0.9 | 4.3 | 0.00 | 0.16 | 0.16 | 78 | 1009.7 |
| 20260508013705 | 51 | 197 | 0.9 | 1.7 | 0.00 | 0.16 | 0.16 | 78 | 1009.5 |
| 20260508012705 | 51 | 244 | 3.5 | 6.1 | 0.00 | 0.16 | 0.16 | 78 | 1009.3 |
| 20260508012205 | 51 | 290 | 0.9 | 5.2 | 0.00 | 0.16 | 0.16 | 78 | 1009.3 |
| 20260508011705 | 51 | 289 | 1.7 | 4.3 | 0.00 | 0.16 | 0.16 | 78 | 1009.2 |
| 20260508010705 | 51 | 286 | 2.6 | 6.1 | 0.00 | 0.16 | 0.16 | 77 | 1008.9 |
| 20260508010205 | 51 | 245 | 2.6 | 7.0 | 0.00 | 0.16 | 0.16 | 77 | 1008.9 |
| 20260508005205 | 51 | 232 | 4.3 | 7.0 | 0.00 | 0.16 | 0.16 | 76 | 1008.9 |
| 20260508004705 | 52 | 244 | 5.2 | 7.0 | 0.00 | 0.16 | 0.16 | 76 | 1008.9 |
| 20260508004205 | 52 | 237 | 4.3 | 7.0 | 0.00 | 0.16 | 0.16 | 75 | 1008.9 |
| 20260508003706 | 52 | 230 | 5.2 | 7.0 | 0.00 | 0.16 | 0.16 | 75 | 1008.8 |
| 20260508002705 | 52 | 234 | 5.2 | 7.8 | 0.00 | 0.16 | 0.16 | 73 | 1008.7 |
| 20260508002205 | 53 | 217 | 6.1 | 7.8 | 0.00 | 0.16 | 0.16 | 73 | 1008.6 |
| 20260508001705 | 53 | 219 | 6.1 | 8.7 | 0.00 | 0.16 | 0.16 | 72 | 1008.6 |
| 20260508001205 | 53 | 222 | 6.1 | 7.8 | 0.00 | 0.16 | 0.16 | 71 | 1008.4 |
| 20260507235705 | 54 | 217 | 6.1 | 8.7 | 0.00 | 0.16 | 0.16 | 70 | 1008.3 |
| 20260507235205 | 54 | 226 | 7.0 | 10.4 | 0.00 | 0.16 | 0.16 | 70 | 1008.3 |
| 20260507234705 | 54 | 220 | 7.8 | 10.4 | 0.00 | 0.16 | 0.16 | 70 | 1008.3 |
| 20260507234205 | 55 | 217 | 7.8 | 10.4 | 0.00 | 0.16 | 0.16 | 69 | 1008.1 |
| 20260507233705 | 55 | 220 | 7.8 | 10.4 | 0.00 | 0.16 | 0.16 | 69 | 1008.0 |